Clayton Lake, ME

8:59 AM EDT on August 23, 2017 (GMT -0400)
Clayton Lake

Weather History for K40B - October, 2012

Change the Weather History Date:

Thursday, October 11, 2012

  Actual Average Record
Temperature  
Mean Temperature 38 °F -  
Max Temperature 45 °F 50 °F 73 °F (2001)
Min Temperature 30 °F 32 °F 27 °F (2006)
Degree Days  
Heating Degree Days 26    
Moisture  
Dew Point 29 °F    
Average Humidity 69    
Maximum Humidity 95    
Minimum Humidity 48    
Precipitation  
Precipitation 0.09 in - - ()
Sea Level Pressure  
Sea Level Pressure 29.80 in    
Wind  
Wind Speed 5 mph (WSW)    
Max Wind Speed 12 mph    
Max Gust Speed 29 mph    
Averages and records for this station are not official NWS values.
T = Trace of Precipitation, MM = Missing Value Source: NWS Daily Summary

Daily Weather History Graph

Daily Weather History Graph

Search for Another Location

Airport or City:

Trip Planner

Search our weather history database for the weather conditions in past years. The results will help you decide how hot, cold, wet, or windy it might be!

Date:

Astronomy

Oct. 11, 2012 Rise Set
Actual Time 6:50 AM EDT 5:57 PM EDT
Civil Twilight 6:20 AM EDT 6:28 PM EDT
Nautical Twilight 5:45 AM EDT 7:03 PM EDT
Astronomical Twilight 5:10 AM EDT 7:38 PM EDT
Moon 2:11 AM EDT (10/11) 3:44 PM EDT (10/11)
Length of Visible Light 12h 07m
Length of Day
11h 07m
Waning Crescent, 18% of the Moon is Illuminated
Oct 11
Waning Crescent
Oct 15
New
Oct 21
First Quarter
Oct 29
Full
Nov 6
Last Quarter

Hourly Weather History & Observations

Time (EDT) Temp. Windchill Dew Point Humidity Pressure Visibility Wind Dir Wind Speed Gust Speed Precip Events Conditions
12:25 AM 45.3 °F - - N/A% 29.61 in - Variable 2.3 mph - 0.03 in   Unknown
1:26 AM 44.8 °F 41.6 °F - N/A% 29.59 in - Variable 5.8 mph 11.5 mph 0.01 in   Unknown
2:25 AM 43.0 °F 39.5 °F - N/A% 29.59 in - Variable 5.8 mph 15.0 mph N/A   Unknown
3:25 AM 41.5 °F 38.6 °F - N/A% 29.59 in - Variable 4.6 mph 12.7 mph N/A   Unknown
4:25 AM 40.1 °F 34.7 °F - N/A% 29.60 in - SW 8.1 mph 17.3 mph 0.03 in   Unknown
5:25 AM 38.7 °F 34.3 °F 37.4 °F 95% 29.63 in - Variable 5.8 mph 15.0 mph 0.00 in   Unknown
6:25 AM 36.9 °F - - N/A% 29.65 in - Variable 2.3 mph - N/A   Unknown
7:25 AM 37.4 °F 33.8 °F - N/A% 29.68 in - Variable 4.6 mph 13.8 mph 0.01 in   Unknown
8:25 AM 38.3 °F 34.8 °F - N/A% 29.71 in - Variable 4.6 mph 15.0 mph 0.03 in   Unknown
9:25 AM 39.2 °F 35.0 °F 35.8 °F 88% 29.74 in - Variable 5.8 mph 25.3 mph N/A   Unknown
10:25 AM 40.1 °F 33.2 °F 32.9 °F 75% 29.78 in - WSW 11.5 mph 27.6 mph 0.01 in   Unknown
11:25 AM 40.1 °F 38.0 °F 30.2 °F 68% 29.81 in - Variable 3.5 mph 19.6 mph 0.00 in   Unknown
12:25 PM 41.2 °F 35.5 °F 32.5 °F 71% 29.83 in - WSW 9.2 mph 20.7 mph N/A   Unknown
1:26 PM 40.1 °F 34.1 °F 28.2 °F 63% 29.85 in - SW 9.2 mph 25.3 mph N/A   Unknown
2:25 PM 42.4 °F 36.5 °F 26.1 °F 52% 29.86 in - SW 10.4 mph 28.8 mph 0.00 in   Unknown
3:25 PM 43.2 °F 37.9 °F 24.8 °F 48% 29.89 in - WSW 9.2 mph 20.7 mph 0.00 in   Unknown
4:25 PM 43.3 °F 38.6 °F 25.5 °F 49% 29.92 in - WSW 8.1 mph 16.1 mph N/A   Unknown
5:25 PM 40.6 °F 36.7 °F 24.1 °F 52% 29.94 in - Variable 5.8 mph 18.4 mph N/A   Unknown
6:28 PM 38.1 °F - 25.3 °F 60% 29.96 in - Calm Calm - N/A   Unknown
7:25 PM 32.2 °F - 28.2 °F 85% 29.98 in - Calm Calm - N/A   Unknown
8:25 PM 30.4 °F - 27.5 °F 89% 29.99 in - Calm Calm - 0.00 in   Unknown
9:25 PM - - - N/A% 29.99 in - Calm Calm - N/A   Unknown
10:25 PM - - - N/A% 29.98 in - Calm Calm - N/A   Unknown
11:27 PM - - - N/A% 29.96 in - Calm Calm - N/A   Unknown